Theta_e
272 272 272 272 271 272 271 271 268 270 270 274 278 279 282 285 286 285 286 287 288 289 291 292 292 291 289 291 293 293 291 290 288 288 287 286 286 285 285 285 285 285 285 284
268 272 272 270 272 272 272 273 273 273 272 279 281 283 282 283 283 283 284 285 285 286 287 287 288 288 287 287 288 291 288 288 287 286 286 286 286 285 285 285 284 285 284 284
265 271 270 265 270 271 272 274 272 268 274 279 279 280 280 281 282 283 283 283 284 285 286 287 287 288 287 287 288 287 287 287 287 286 286 285 285 284 284 284 285 284 284 284
266 267 260 270 276 275 273 274 275 276 277 279 281 282 283 283 284 283 282 283 284 285 285 287 287 287 287 287 287 287 287 287 286 286 286 285 284 284 284 285 284 284 284 284
265 264 268 270 273 272 271 271 276 276 278 279 280 280 280 286 286 283 283 284 284 285 286 286 286 287 287 286 286 286 287 287 286 286 286 285 284 284 285 284 284 284 284 284
267 262 260 270 275 278 277 268 277 277 277 278 278 273 278 283 283 283 284 285 284 286 286 286 286 285 286 286 286 286 287 287 287 287 286 285 285 284 285 285 284 284 284 284
266 265 268 274 276 278 266 269 278 279 278 278 276 279 282 283 283 284 284 285 286 286 286 285 284 285 285 286 286 287 288 288 287 287 286 286 285 285 285 284 284 284 284 284
267 264 262 277 277 271 276 280 280 279 279 279 279 281 281 282 282 283 283 284 285 285 285 284 284 283 284 286 287 287 288 287 287 286 287 286 285 285 283 283 283 283 283 283
270 269 277 279 279 282 280 280 280 280 280 280 280 280 281 282 282 283 284 284 285 284 283 283 283 283 283 286 286 286 287 287 286 286 286 285 285 283 282 282 283 282 281 282
272 275 276 278 281 282 283 282 282 283 282 281 279 280 281 282 282 283 284 284 283 283 281 280 281 281 281 284 284 286 286 286 285 284 284 284 285 284 283 282 282 283 282 281
272 275 277 279 280 281 282 282 282 282 282 281 281 281 282 282 282 283 283 282 282 281 280 279 279 278 279 280 282 284 285 284 283 284 284 283 284 284 284 284 285 284 284 284
271 277 277 277 281 282 281 281 281 280 280 281 281 280 282 281 282 283 281 280 279 278 277 278 277 276 276 277 280 283 282 281 282 283 283 282 283 283 286 287 286 287 288 286
276 279 279 280 281 282 281 281 281 280 280 279 281 281 281 280 282 280 278 278 276 275 274 274 274 273 273 275 278 281 284 282 282 282 282 282 282 282 281 283 285 285 286 286
280 280 277 279 278 281 281 281 281 280 280 280 280 279 279 279 277 275 275 275 274 273 271 271 272 272 272 273 276 278 281 282 282 282 282 282 282 282 283 281 281 282 285 285
273 272 274 276 278 278 279 278 275 275 277 277 278 277 277 276 274 273 271 271 273 271 269 268 269 270 270 271 274 277 279 280 282 282 283 282 282 282 283 283 283 283 282 282
264 266 267 267 269 269 269 270 270 272 274 273 273 274 276 274 273 270 268 267 268 267 266 266 267 268 268 270 274 278 277 277 280 280 280 280 280 280 280 280 280 281 281 281
261 264 263 263 264 263 262 263 264 266 268 268 270 273 272 272 270 268 267 267 265 264 265 265 264 267 268 271 274 279 279 278 279 280 280 280 280 280 280 280 279 279 278 278
262 262 262 261 260 260 260 262 263 264 265 268 270 269 268 269 268 266 265 266 266 265 263 263 265 267 268 271 274 276 276 274 275 274 274 273 274 275 275 274 273 273 273 274
262 259 259 260 259 259 259 261 263 265 267 267 266 264 263 263 263 262 263 263 262 263 262 263 267 266 266 271 272 273 272 271 271 270 270 270 269 270 270 270 270 270 270 270
262 260 259 258 259 260 261 262 264 265 264 264 263 262 261 261 261 261 261 259 259 260 262 263 265 265 266 268 270 270 269 269 268 267 268 268 268 267 267 267 267 267 268 268
260 259 257 257 260 261 261 262 262 261 261 262 262 260 259 259 259 261 262 260 260 263 263 263 263 265 266 267 267 267 266 266 266 266 266 266 266 265 265 265 265 266 266 266
258 257 257 259 260 260 260 260 261 260 260 260 260 260 260 259 259 258 258 260 261 263 263 263 263 263 264 265 265 265 264 264 264 264 263 264 263 263 263 263 263 263 263 263
257 258 260 259 259 259 259 258 258 258 258 258 258 257 257 257 258 261 258 259 263 262 263 263 263 263 263 263 263 262 262 261 261 261 260 260 260 260 260 260 260 260 260 260
258 259 260 260 260 259 257 257 257 257 257 257 257 257 259 259 258 260 260 259 259 260 260 261 262 263 261 260 260 260 260 259 259 259 259 259 259 259 259 258 258 259 258 257
259 260 260 260 259 258 258 258 258 258 257 257 257 258 258 258 258 257 259 258 260 259 259 260 262 261 259 259 259 258 257 257 258 258 258 258 258 258 258 257 256 256 256 256
259 259 259 259 259 259 259 259 258 258 258 257 257 258 258 259 258 258 258 258 258 258 258 258 258 259 258 258 258 258 258 258 258 257 257 257 257 257 256 256 256 256 255 254
259 260 259 259 259 259 259 259 258 257 258 257 256 257 257 258 258 258 258 258 258 258 257 257 258 257 257 258 257 257 257 256 254 256 256 256 256 255 254 254 254 254 254 253
Wind_Speed
14 17 16 20 21 19 15 15 15 26 23 17 21 23 19 23 19 20 20 20 16 16 15 14 11 5 4 6 9 10 12 10 10 9 10 11 11 10 9 9 9 8 9 6
16 16 16 20 20 20 23 20 21 24 28 19 17 19 17 20 20 18 17 17 18 18 17 15 13 7 7 7 6 9 10 12 10 11 11 12 11 11 10 9 10 8 8 8
16 12 10 11 15 20 18 21 18 20 17 13 12 11 13 17 21 18 13 18 21 19 17 16 14 11 8 10 8 8 11 11 11 13 12 12 11 11 11 11 9 9 8 8
13 7 18 12 13 13 19 19 19 21 18 13 9 12 15 18 15 9 16 19 21 17 18 17 15 12 10 7 11 12 12 12 13 13 13 12 12 12 11 10 11 10 9 8
12 13 17 20 19 20 21 23 21 21 20 16 16 16 18 2 3 12 15 17 18 17 18 18 16 13 11 9 11 13 14 14 14 14 14 14 14 13 11 10 10 9 7 9
12 12 21 18 18 20 16 17 16 20 21 13 13 13 10 13 16 15 15 15 19 20 19 16 15 13 12 12 12 15 15 14 14 14 15 16 15 14 11 9 9 7 7 8
16 16 14 18 20 18 18 13 19 11 14 16 15 11 13 15 16 12 13 17 18 18 17 17 14 11 13 11 14 12 11 12 13 15 15 14 13 10 11 10 8 8 9 7
10 13 21 19 18 20 19 15 13 10 16 16 17 16 16 16 15 13 15 18 16 18 16 15 11 9 11 12 7 8 11 12 12 12 10 10 13 10 10 10 10 9 7 6
11 9 10 12 9 8 14 13 14 13 16 17 15 18 19 18 17 15 16 16 14 16 16 12 9 8 11 8 6 9 10 11 11 11 10 11 13 12 10 10 9 8 8 9
16 17 20 21 11 12 11 13 15 12 13 14 17 17 18 16 14 15 15 15 14 14 12 12 10 10 9 7 1 8 10 10 9 10 10 9 8 8 9 10 9 8 7 7
13 18 21 15 16 18 20 16 15 13 12 15 14 16 16 14 14 14 14 13 12 11 10 11 10 10 10 8 4 2 5 7 9 8 10 9 9 9 9 10 11 11 10 9
13 18 13 16 12 14 14 14 15 14 13 13 13 17 16 12 12 11 12 13 11 9 10 9 8 9 10 10 7 2 4 6 7 7 7 7 7 6 9 6 12 10 9 9
17 19 18 17 15 14 12 15 16 14 14 14 13 13 11 13 11 9 12 9 8 8 7 8 7 7 9 11 9 4 3 5 5 7 7 7 7 8 7 4 7 12 11 9
12 16 17 17 14 15 13 14 9 9 9 8 10 9 9 7 6 7 9 7 6 5 5 7 6 6 8 9 8 5 2 3 5 5 5 6 6 6 5 7 7 5 11 10
13 15 13 14 12 11 7 6 6 9 9 10 7 5 3 8 8 4 5 6 5 2 5 7 6 6 9 9 8 5 2 1 3 4 4 5 5 4 4 4 3 4 4 3
15 11 9 6 9 7 7 7 8 10 6 4 5 8 7 6 5 1 2 5 5 3 5 6 6 8 9 8 8 1 1 2 3 4 5 5 4 4 4 3 3 3 3 2
7 9 12 11 10 12 9 9 9 12 11 11 11 8 6 7 3 3 2 2 2 4 5 6 8 8 8 7 7 1 3 3 3 4 5 5 5 5 4 4 4 4 5 5
6 9 10 11 13 13 14 10 10 12 12 12 8 5 5 2 2 3 2 3 1 4 6 8 9 7 7 7 6 6 6 6 7 7 7 8 8 8 8 8 7 7 6 6
6 8 9 11 10 11 10 9 10 11 10 7 3 2 4 4 3 3 4 4 6 6 8 9 10 8 8 8 7 7 7 8 8 8 8 10 9 8 8 8 7 7 6 6
11 8 8 10 9 7 8 8 11 6 5 2 2 4 6 6 4 5 5 8 6 3 6 7 7 8 8 10 10 7 9 10 9 9 8 9 9 8 8 10 8 8 7 7
10 9 9 7 7 5 6 7 6 5 5 5 4 6 5 6 6 5 4 4 7 6 6 10 9 7 6 8 9 9 10 9 10 9 9 8 8 9 9 9 8 8 7 7
8 8 8 5 5 5 6 7 6 5 6 6 6 6 6 7 6 8 7 7 5 9 7 7 7 11 9 12 9 10 10 10 9 8 8 8 8 8 7 7 7 6 6 6
7 7 6 5 4 3 5 6 6 6 6 6 7 7 6 5 6 5 5 10 6 9 8 8 11 14 14 10 10 9 10 10 9 8 8 7 7 6 6 6 6 6 6 6
6 5 5 4 3 4 6 5 6 6 6 8 7 7 5 6 7 6 6 8 12 12 10 10 12 15 13 8 8 8 9 9 8 7 7 8 6 5 6 5 5 4 3 4
5 3 3 4 4 5 5 3 3 5 7 9 8 8 9 8 6 5 7 7 11 8 8 12 14 13 8 7 7 7 8 7 5 5 5 5 5 5 4 4 3 3 2 3
4 3 4 6 5 4 3 3 5 5 5 6 7 7 7 6 6 6 6 8 7 8 7 7 7 7 6 6 7 7 7 6 5 5 5 5 4 4 3 4 4 3 2 2
3 3 3 4 4 4 4 5 6 6 6 6 7 7 6 6 7 7 7 6 6 6 6 6 6 7 6 6 6 5 5 4 4 3 3 3 3 2 3 2 2 2 2 2
Wind_Direction
263 276 282 286 286 289 275 265 254 276 286 296 295 291 300 320 333 330 329 327 332 332 331 324 322 258 242 222 205 189 180 173 169 152 144 150 153 156 154 158 168 161 158 157
270 276 276 273 273 273 273 271 262 271 271 294 315 318 322 318 320 315 320 323 323 321 319 315 314 284 228 219 208 191 182 178 159 151 153 160 156 159 159 160 171 157 166 169
266 286 307 272 257 259 260 259 259 268 284 306 290 305 312 308 298 310 328 321 320 319 314 310 306 300 257 222 194 190 190 178 169 164 164 165 160 161 167 170 167 174 176 175
266 252 258 272 271 282 271 271 270 271 278 289 298 296 302 289 291 321 328 322 315 312 308 306 302 289 278 208 196 197 195 188 173 172 168 163 164 172 171 173 177 180 185 184
250 249 268 274 276 272 267 263 267 283 288 279 291 302 294 223 278 324 318 310 304 302 302 300 294 286 279 230 202 199 201 191 181 175 168 169 176 178 175 172 179 184 187 181
244 245 259 264 270 267 276 272 265 269 279 285 300 288 303 309 308 306 305 304 306 307 303 296 294 287 272 239 207 206 203 195 180 178 176 179 179 177 174 177 178 173 179 191
234 247 254 259 263 276 252 266 264 292 292 292 294 283 297 291 299 293 298 304 308 314 304 303 296 286 270 239 222 212 192 187 185 182 183 181 172 171 167 170 166 176 185 186
228 248 259 252 255 247 248 258 268 298 295 284 291 287 285 295 304 304 311 313 318 314 310 308 299 290 271 248 224 194 192 184 184 183 179 170 167 162 165 171 174 182 185 191
210 231 252 260 253 270 235 257 265 287 280 288 286 288 286 294 305 306 310 312 319 314 310 317 321 311 290 274 189 183 185 186 182 172 172 170 171 165 166 175 186 188 195 192
248 253 252 256 259 250 246 251 265 259 274 280 284 287 285 296 299 304 306 313 318 316 314 325 343 334 323 308 281 182 187 175 163 166 165 166 173 169 178 178 183 183 186 201
256 255 258 265 247 245 250 253 265 267 258 269 281 280 280 289 301 300 304 312 318 312 312 323 343 336 338 334 329 215 167 157 153 166 172 170 184 176 194 190 188 192 197 181
244 257 258 265 260 244 246 257 263 268 274 274 271 276 280 282 293 297 304 307 309 313 315 328 344 335 338 338 325 189 154 156 160 159 173 168 170 165 207 192 189 194 181 175
254 265 272 277 274 273 268 266 272 272 266 274 277 271 275 286 288 305 294 299 304 314 320 328 336 334 338 335 336 330 170 158 153 150 167 168 169 177 174 187 182 200 202 191
266 271 265 263 266 272 269 270 268 261 259 259 264 270 269 270 284 288 291 304 305 316 333 333 328 334 336 330 329 340 22 132 150 150 155 155 162 170 174 172 181 182 217 210
358 344 326 320 309 298 312 318 288 275 284 279 266 249 245 274 277 291 307 308 295 303 359 333 327 335 336 324 321 330 337 98 112 120 126 129 134 141 151 144 137 135 126 119
319 305 312 327 317 330 348 347 327 312 320 328 309 285 269 273 262 182 352 358 335 356 357 329 325 333 322 319 311 272 37 70 113 115 116 109 109 118 120 114 117 115 105 110
342 338 340 321 327 322 315 302 287 288 288 283 279 283 286 260 191 169 84 42 25 35 1 336 323 329 318 314 309 69 112 121 114 104 106 106 104 97 95 98 93 86 76 50
289 282 287 284 291 298 300 303 301 293 286 287 291 293 287 262 275 95 37 350 346 78 22 345 324 339 341 2 18 46 53 50 55 62 61 64 62 60 62 63 58 60 55 34
302 286 293 293 284 283 288 294 295 290 291 298 299 39 59 50 45 46 42 40 32 22 358 343 345 13 17 34 46 57 62 65 63 63 67 72 67 61 65 67 66 61 53 48
311 306 293 293 292 277 296 303 297 299 331 0 92 73 66 48 47 64 71 66 42 356 331 342 13 32 39 42 57 62 68 66 68 64 62 68 72 73 72 66 67 63 59 54
308 308 298 296 314 331 332 322 328 351 359 16 52 59 65 48 30 353 63 61 16 4 20 37 32 38 40 55 60 63 66 68 66 65 68 69 72 68 65 63 61 56 55 53
310 309 309 321 346 6 5 1 8 28 38 43 52 64 69 66 71 67 40 32 14 32 45 47 44 42 48 57 58 61 62 64 64 62 61 61 64 67 64 60 60 55 52 51
304 305 323 353 13 36 39 31 31 47 59 57 59 62 66 54 25 41 53 9 40 45 48 51 51 48 51 55 59 62 62 62 61 60 60 59 62 63 62 56 53 48 44 43
308 331 345 5 17 51 53 40 52 55 67 68 57 33 39 66 57 43 69 58 49 51 54 49 51 52 54 54 55 58 60 59 57 57 59 57 58 58 56 52 54 48 46 44
337 339 6 19 45 59 62 54 76 66 62 59 53 52 54 44 63 37 46 43 46 58 56 44 50 51 51 52 55 57 58 50 44 55 56 61 54 51 50 48 44 32 23 29
13 24 43 42 42 40 43 45 62 55 68 72 57 48 48 49 59 64 62 55 48 46 49 44 36 48 47 47 53 52 55 48 38 41 42 42 42 40 30 24 23 13 5 349
44 41 59 62 47 47 58 64 71 62 58 66 70 40 41 42 47 53 49 51 50 49 47 45 43 40 38 46 46 50 51 60 26 21 37 40 32 21 19 0 326 306 294 277